Location: Trout Lake
(45.9980°N, 121.5270°W)
Time: 18:44:28
(UTC-08:00)

Cosmos 1023 Rocket - Pass Details

Date: 06 December 2023
Orbit: 735 x 770 km, 74.1° (Epoch: 22 February)

Event Time Altitude Azimuth Distance (km) Brightness Sun altitude
Rises 17:13:06 0° 339° (NNW) 3,207 7.7 -8.8°
Reaches altitude 10° 17:15:30 10° 341° (NNW) 2,273 6.9 -9.2°
Maximum altitude 17:20:38 75° 67° (ENE) 771 4.4 -10.0°
Drops below altitude 10° 17:25:42 10° 154° (SSE) 2,238 6.9 -10.8°
Sets 17:28:03 0° 156° (SSE) 3,154 7.7 -11.2°
